USPPUSCC

Guest
Details From USPP - BOLSHOYE SAVINO
To USCC - BALANDINO
Flight Number -
Tags decoded
Created
Modified
Stats Distance 254 nm / 471 km
Max Altitude 0 ft / 0 m
Waypoints 5
Social Downloads 1
Likes 0
Share VATSIM

Download

Looking for another format? Having issues loading an existing format? Contact us
Advertisement - Login to hide

Notes

Requested: USPP LAGUL B210 ALUMA R486 TAKRA USCC Unmatched points: B210 R486

Route

USPP LAGUL ALUMA TAKRA USCC

ID Type Via Altitude Latitude Longitude Leg Dist Tot Dist Heading (true) Name
O USPP APT - 0 ft / 0 m 57.91452˚ 56.02121˚ - 0 nm - BOLSHOYE SAVINO
LAGUL FIX - 0 ft / 0 m 57.65194˚ 56.50833˚ 22 nm 22 nm 135° / 136° -
ALUMA FIX - 0 ft / 0 m 56.38694˚ 60.98194˚ 164 nm 186 nm 116° / 119° -
TAKRA FIX - 0 ft / 0 m 55.90694˚ 61.22361˚ 29 nm 216 nm 164° / 164° -
O USCC APT - 0 ft / 0 m 55.30584˚ 61.50332˚ 37 nm 254 nm 165° / 165° BALANDINO

Altitude Profile

Advertisement - Login to hide

Weather


0- 5 10 15 20 25 30 35+ Temperature / ° C

Clouds and Precipitation
Forecast for 2018-05-25 12:00 UTC. Updated 6 hours ago

Ground ~20,000 ft ~40,000 ft Winds

USPP

Details ICAO USPP (PEE)
Name BOLSHOYE SAVINO
Region Russia
Timezone Asia/Yekaterinburg (UTC+5.0)
Stats Elevation 404 ft / 123 m (AMSL)
Location 57.914517° 56.021214°
Runways 1
Magnetic Variation 15.632° E

METAR

USPP 251700Z 36005MPS CAVOK 08/M02 Q1020 R03/090060 NOSIG RMK QFE754

Decode

TAF

TAF USPP 251359Z 2515/2615 36006MPS 9999 BKN020 SCT030CB TEMPO 2515/2520 33012MPS 3100 -SHRA BKN011CB BECMG 2521/2523 SCT020

Decode

Departure Runways

ID Width Length Bearing (true) Bearing (mag) Surface Threshold Offset Overrun Length
03 161 ft / 49 m 10,493 ft / 3,198 m 45.91° 30.28° Concrete 0 ft / 0 m 165 ft / 50 m
21 161 ft / 49 m 10,493 ft / 3,198 m 225.95° 210.32° Concrete 0 ft / 0 m 155 ft / 47 m

USCC

Details ICAO USCC (CEK)
Name BALANDINO
Region Russia
Timezone Asia/Yekaterinburg (UTC+5.0)
Stats Elevation 769 ft / 234 m (AMSL)
Location 55.305843° 61.503320°
Runways 1
Magnetic Variation 13.828° E

METAR

USCC 251700Z 36005MPS 4000 -SHRA BR SCT010 BKN030CB 08/07 Q1012 R27/290050 NOSIG RMK QFE739

Decode

TAF

TAF USCC 251400Z 2515/2615 36005MPS 3100 BR OVC011CB TEMPO 2515/2603 1100 SHRA BR VV005

Decode

Destination Runways

ID Width Length Bearing (true) Bearing (mag) Surface Threshold Offset Overrun Length
09 197 ft / 60 m 10,443 ft / 3,183 m 103.59° 89.76° Concrete 0 ft / 0 m 230 ft / 70 m
27 197 ft / 60 m 10,443 ft / 3,183 m 283.63° 269.80° Concrete 0 ft / 0 m 230 ft / 70 m

Approach Navaids

Runway Type Ident Frequency Range Bearing (true) Bearing (mag) Slope Elevation
09 Localiser ILB 109.90 MHz 18 nm / 33 km 105.25° 91.42° - 769 ft / 234 m (AMSL)
09 Glidescope ILB 109.90 MHz 10 nm / 19 km 103.61° 89.78° 2.80° 769 ft / 234 m (AMSL)
27 Localiser IKS 108.70 MHz 18 nm / 33 km 282.19° 268.36° - 769 ft / 234 m (AMSL)
27 Glidescope IKS 108.70 MHz 10 nm / 19 km 283.61° 269.78° 2.80° 769 ft / 234 m (AMSL)

Popular Alternatives